Millinocket, ME

7:32 AM EDT on July 26, 2017 (GMT -0400)
Millinocket Municipal

Weather History for KMLT - November, 2012

Change the Weather History Date:

Thursday, November 1, 2012

  Actual Average Record
Temperature  
Mean Temperature 50 °F 40 °F  
Max Temperature 52 °F 48 °F 71 °F (1956)
Min Temperature 47 °F 32 °F 15 °F (1972)
Degree Days  
Heating Degree Days 15 25  
Month to date heating degree days 15 25  
Since 1 July heating degree days 720 959  
Cooling Degree Days 0 0  
Month to date cooling degree days 0 0  
Year to date cooling degree days 443 268  
Moisture  
Dew Point 46 °F    
Average Humidity 84    
Maximum Humidity 96    
Minimum Humidity 71    
Precipitation  
Precipitation T in 0.12 in 2.10 in (1962)
Month to date precipitation T 0.12  
Year to date precipitation 34.41 34.84  
Sea Level Pressure  
Sea Level Pressure 29.53 in    
Wind  
Wind Speed 2 mph (SE)    
Max Wind Speed 8 mph    
Max Gust Speed 12 mph    
Visibility 9 miles    
Events Rain    
T = Trace of Precipitation, MM = Missing Value Source: NWS Daily Summary

Daily Weather History Graph

Daily Weather History Graph

Search for Another Location

Airport or City:

Trip Planner

Search our weather history database for the weather conditions in past years. The results will help you decide how hot, cold, wet, or windy it might be!

Date:

Astronomy

Nov. 01, 2012 Rise Set
Actual Time 7:15 AM EDT 5:20 PM EDT
Civil Twilight 6:44 AM EDT 5:51 PM EDT
Nautical Twilight 6:09 AM EDT 6:26 PM EDT
Astronomical Twilight 5:34 AM EDT 7:01 PM EDT
Moon 7:08 PM EDT (11/1) 9:51 AM EDT (11/1)
Length of Visible Light 11h 07m
Length of Day
10h 05m
Waning Gibbous, 93% of the Moon is Illuminated
Nov 1
Waning Gibbous
Nov 6
Last Quarter
Nov 13
New
Nov 20
First Quarter
Nov 28
Full

Hourly Weather History & Observations

Time (EDT) Temp. Dew Point Humidity Pressure Visibility Wind Dir Wind Speed Gust Speed Precip Events Conditions
12:49 AM 51.8 °F 50.0 °F 94% 29.54 in 10.0 mi Calm Calm - N/A   Overcast
12:53 AM 52.0 °F 50.0 °F 93% 29.55 in 10.0 mi Calm Calm - N/A   Overcast
1:53 AM 51.1 °F 48.0 °F 89% 29.55 in 10.0 mi Calm Calm - N/A   Scattered Clouds
2:40 AM 50.0 °F 46.4 °F 87% 29.54 in 10.0 mi Calm Calm - N/A   Mostly Cloudy
2:53 AM 50.0 °F 46.9 °F 89% 29.56 in 10.0 mi SSE 3.5 mph - N/A   Mostly Cloudy
3:05 AM 50.0 °F 46.4 °F 87% 29.54 in 10.0 mi Calm Calm - N/A   Scattered Clouds
3:16 AM 50.0 °F 46.4 °F 87% 29.54 in 10.0 mi Calm Calm - N/A   Mostly Cloudy
3:53 AM 48.9 °F 46.9 °F 93% 29.56 in 10.0 mi Calm Calm - N/A   Scattered Clouds
4:00 AM 48.2 °F 46.4 °F 93% 29.54 in 8.0 mi Calm Calm - N/A   Mostly Cloudy
4:32 AM 48.2 °F 46.4 °F 93% 29.54 in 10.0 mi Calm Calm - N/A   Overcast
4:53 AM 48.9 °F 46.9 °F 93% 29.55 in 10.0 mi Calm Calm - N/A   Mostly Cloudy
5:11 AM 48.2 °F 46.4 °F 93% 29.53 in 10.0 mi Calm Calm - N/A   Overcast
5:42 AM 48.2 °F 46.4 °F 93% 29.53 in 9.0 mi Calm Calm - N/A   Overcast
5:53 AM 48.9 °F 46.9 °F 93% 29.56 in 10.0 mi SSE 3.5 mph - N/A   Overcast
6:50 AM 48.2 °F 46.4 °F 93% 29.53 in 10.0 mi SE 3.5 mph - N/A   Scattered Clouds
6:53 AM 48.9 °F 46.0 °F 90% 29.55 in 10.0 mi ESE 3.5 mph - N/A   Scattered Clouds
7:04 AM 48.2 °F 46.4 °F 93% 29.54 in 10.0 mi East 3.5 mph - N/A   Mostly Cloudy
8:46 AM 50.0 °F 46.4 °F 87% 29.55 in 10.0 mi Calm Calm - N/A   Overcast
8:53 AM 50.0 °F 46.9 °F 89% 29.57 in 10.0 mi SSE 3.5 mph - N/A   Overcast
9:53 AM 50.0 °F 46.9 °F 89% 29.58 in 10.0 mi Variable 4.6 mph - N/A   Overcast
10:02 AM 50.0 °F 46.4 °F 87% 29.56 in 10.0 mi Variable 3.5 mph - N/A   Overcast
10:09 AM 50.0 °F 46.4 °F 87% 29.56 in 10.0 mi Variable 4.6 mph - N/A   Overcast
10:53 AM 51.1 °F 45.0 °F 80% 29.58 in 10.0 mi Variable 4.6 mph - N/A   Overcast
11:53 AM 51.1 °F 43.0 °F 74% 29.57 in 10.0 mi South 3.5 mph - N/A   Overcast
12:53 PM 52.0 °F 43.0 °F 71% 29.55 in 10.0 mi Variable 3.5 mph - N/A   Overcast
1:53 PM 52.0 °F 43.0 °F 71% 29.53 in 10.0 mi Variable 4.6 mph - 0.00 in Rain Light Rain
2:53 PM 52.0 °F 44.1 °F 74% 29.52 in 10.0 mi Variable 5.8 mph - 0.00 in   Overcast
3:21 PM 50.0 °F 44.6 °F 82% 29.50 in 10.0 mi SE 3.5 mph - N/A   Overcast
3:53 PM 50.0 °F 46.0 °F 86% 29.52 in 6.0 mi ESE 5.8 mph - 0.00 in Rain Light Rain
4:06 PM 50.0 °F 46.4 °F 87% 29.50 in 6.0 mi ESE 3.5 mph - 0.00 in Rain Light Rain
4:30 PM 48.2 °F 46.4 °F 93% 29.50 in 9.0 mi Calm Calm - 0.00 in   Overcast
4:53 PM 48.9 °F 46.9 °F 93% 29.52 in 10.0 mi Calm Calm - 0.00 in   Overcast
5:21 PM 50.0 °F 46.4 °F 87% 29.50 in 10.0 mi Calm Calm - N/A   Overcast
5:53 PM 48.9 °F 46.9 °F 93% 29.52 in 10.0 mi Calm Calm - N/A   Overcast
6:51 PM 48.2 °F 46.4 °F 93% 29.49 in 10.0 mi Calm Calm - N/A   Overcast
6:53 PM 48.9 °F 46.9 °F 93% 29.52 in 10.0 mi Calm Calm - N/A   Overcast
7:37 PM 48.2 °F 46.4 °F 93% 29.50 in 8.0 mi Calm Calm - N/A   Overcast
7:46 PM 48.2 °F 46.4 °F 93% 29.50 in 9.0 mi Calm Calm - N/A   Overcast
7:53 PM 48.9 °F 46.9 °F 93% 29.52 in 8.0 mi Calm Calm - N/A   Overcast
8:53 PM 48.9 °F 46.9 °F 93% 29.52 in 5.0 mi Calm Calm - N/A   Overcast
9:28 PM 48.2 °F 46.4 °F 93% 29.49 in 6.0 mi Calm Calm - N/A   Overcast
9:41 PM 48.2 °F 46.4 °F 93% 29.49 in 5.0 mi Calm Calm - N/A   Overcast
9:53 PM 48.0 °F 46.9 °F 96% 29.51 in 4.0 mi Calm Calm - N/A   Overcast
10:37 PM 48.2 °F 46.4 °F 93% 29.49 in 7.0 mi Calm Calm - N/A   Overcast
10:53 PM 48.0 °F 46.0 °F 93% 29.51 in 8.0 mi Calm Calm - 0.00 in Rain Light Rain
11:53 PM 48.0 °F 44.1 °F 86% 29.50 in 10.0 mi Calm Calm - N/A   Overcast